Regional Weather Roundup
Issued by NWS

Home | Current Version | Previous Version | Graphics & Text | Print | Product List | Glossary On
Versions: 1 2 3 4 5 6 7 8 9 10 11 12 13 14 15 16 17 18 19 20 21 22 23 24 25 26 27 28 29 30 31 32 33 34 35 36 37 38 39 40 41 42 43 44 45 46 47 48 49 50
318
ASUS43 KLOT 300804
RWRIL

ILLINOIS REGIONAL WEATHER ROUNDUP
NATIONAL WEATHER SERVICE CHICAGO/ROMEOVILLE IL
300 AM CDT SUN APR 30 2017

NOTE: "FAIR" INDICATES FEW OR NO CLOUDS BELOW 12,000 FEET WITH NO
SIGNIFICANT WEATHER AND/OR OBSTRUCTIONS TO VISIBILITY.

* THESE STATIONS ARE NOT UNDER NWS QUALITY CONTROL. THEY ALSO MAY NOT
  REPORT WEATHER SUCH AS PRECIPITATION OR FOG.

ILZ001-002-007-009-015-016-024-300900-
NORTHWEST ILLINOIS

CITY           SKY/WX    TMP DP  RH WIND       PRES   REMARKS
MOLINE         CLOUDY    45  41  86 NE16      29.87F
STERLING*      CLOUDY    44  41  89 NE17G24   29.90F
SAVANNA*       CLOUDY    44  40  88 NE13G20   29.93F
$$

ILZ003-004-008-010-011-017-018-300900-
NORTH CENTRAL ILLINOIS

CITY           SKY/WX    TMP DP  RH WIND       PRES   REMARKS
ROCKFORD       CLOUDY    44  40  85 NE15G25   29.95F
FREEPORT*      CLOUDY    42  40  92 NE16G26   29.95F
ROCHELLE*      CLOUDY    42  41  95 NE20G25   29.92F
DE KALB*       CLOUDY    42  41  96 NE20      29.93F
PERU*          CLOUDY    43  42  97 NE14G23   29.87F FOG
$$

ILZ005-006-012>014-019>023-300900-
NORTHEAST ILLINOIS

CITY           SKY/WX    TMP DP  RH WIND       PRES   REMARKS
CHICAGO-OHARE  DRIZZLE   43  41  93 NE16      29.94F
CHICAGO-MIDWAY LGT RAIN  44  44 100 NE14G23   29.93F FOG
AURORA         CLOUDY    44  42  93 NE16G26   29.91F
LANSING*       CLOUDY    46  46 100 NE9       29.91F FOG
JOLIET*        CLOUDY    46  46  98 NE9       29.90F FOG
WAUKEGAN       CLOUDY    41  41 100 NE13G24   29.97F FOG
DUPAGE AIRPORT CLOUDY    43  43 100 NE12      29.93F FOG
KANKAKEE*      CLOUDY    48  47  97 NE9       29.88S FOG
WHEELING       CLOUDY    42  42 100 NE13G24   29.96F FOG
MORRIS*        CLOUDY    46  44  95 NE9       29.88F FOG
NORTHERLY ISL    N/A     43  42  97 N18         N/A
$$

LMZ740>746-300900-
SOUTHERN LAKE MICHIGAN

STATION/POSITION SKY/WX   TEMP    WIND        PRES    VSBY  WAVE
                          AIR SEA DIR/SP/G                  HT/PER
                          (F)     (DEG/KT/KT) (MB)    (MI)  (FT/S)
SOUTHERN BUOY              41 41   40/ 17/ 21 1016.3          6/ 6
HARRISON CRIB              44      30/ 18/ 21   N/A
BURNHAM HARBOR             43      20/ 14/ 19   N/A
CALUMET HARBOR             44      10/ 11/ 13 1013.2F
BURNS HARBOR               46      60/  2/  5 1013.5F
MICHIGAN CITY              45     100/ 12/ 14   N/A
MICHIGAN CITY 6N           45 47                N/A           5/ 7
ST. JOSEPH                 45 45  130/ 19/ 27 1013.0F         4/ 6
$$

ILZ025>027-034>036-040-047-049-050-058-095>099-300900-
WEST-CENTRAL ILLINOIS

CITY           SKY/WX    TMP DP  RH WIND       PRES   REMARKS
QUINCY         LGT RAIN  45  45 100 E9        29.86F
GALESBURG*     CLOUDY    45  44  97 NE10      29.86S
MACOMB*        LGT RAIN  45  45  99 NE13      29.87F
JACKSONVILLE*  RAIN      46  45  99 CALM      29.86S
PITTSFIELD*    RAIN      46  46  99 NW6       29.89R
$$

ILZ028>032-037-038-041>044-048-051>054-059>061-300900-
CENTRAL ILLINOIS

CITY           SKY/WX    TMP DP  RH WIND       PRES   REMARKS
PONTIAC        CLOUDY    48  48  98 NE16      29.87R FOG
BLOOMINGTON    LGT RAIN  47  47 100 E8        29.88R VSB 3/4
DECATUR        CLOUDY    51  51 100 NE3       29.83F
PEORIA         LGT RAIN  46  46 100 NE10      29.85F
LACON*         LGT RAIN  45  45 100 NE9       29.86F
LINCOLN*       RAIN      48  48 100 N5        29.84F
SPRINGFIELD    RAIN      49  47  93 CALM      29.85F FOG
TAYLORVILLE    RAIN      48  48  99 N3        29.84R
$$

ILZ033-039-045-046-055>057-062-063-300900-
EAST-CENTRAL ILLINOIS

CITY           SKY/WX    TMP DP  RH WIND       PRES   REMARKS
CHAMPAIGN      LGT RAIN  55  53  93 NE5       29.82F
RANTOUL*       RAIN      56  56  98 CALM      29.84F
MATTOON        CLOUDY    62  61  96 S10       29.81F
PARIS*         MOCLDY   N/A N/A N/A SE8       29.81F
$$

ILZ079-100>102-300900-
SOUTHWEST ILLINOIS

CITY           SKY/WX    TMP DP  RH WIND       PRES   REMARKS
ALTON          RAIN      51  51  98 N5        29.84F
BELLEVILLE     LGT RAIN  62  62 100 CALM      29.78F
CAHOKIA*       RAIN      58  56  93 N13       29.79F FOG
SPARTA*        CLOUDY    63  63 100 NE7       29.77F
$$

ILZ064>066-069>071-074>076-080>082-084>086-088>090-092>094-300900-
SOUTH-CENTRAL ILLINOIS

CITY           SKY/WX    TMP DP  RH WIND       PRES   REMARKS
CARBONDALE     LGT RAIN  63  63 100 E10       29.75F
CAIRO*         TSTM      65  64  98 E10       29.74F
EFFINGHAM*     CLOUDY    63  63 100 E7        29.82F
MARION         LGT RAIN  64  64 100 E7        29.77F
MT. VERNON     RAIN      63  62  97 E5        29.80F
CENTRALIA*     LGT RAIN  64  63  97 CALM      29.79F
SALEM*         LGT RAIN  64  62  92 SE3       29.80F
METROPOLIS*    CLOUDY    65  64  96 E6        29.78F
$$

ILZ067-068-072-073-078-083-087-091-300900-
SOUTHEAST ILLINOIS

CITY           SKY/WX    TMP DP  RH WIND       PRES   REMARKS
LAWRENCEVILLE  CLOUDY    64  63  96 SE9       29.84F
FLORA*         LGT RAIN  64  63  96 SE3       29.82F
FAIRFIELD*     CLOUDY    63  63 100 CALM      29.80F
HARRISBURG*    CLOUDY    64  63  97 E7        29.80F
ROBINSON*      MOCLDY    62  62  99 SE5       29.84F
CARMI*         CLOUDY    64  64  99 E7        29.81F
$$

ABBREVIATIONS USED IN REMARKS
   TC - TEMPERATURE IN CELSIUS
  WCI - WIND CHILL INDEX
   HX - HEAT INDEX
  VSB - VISIBILITY
$$





USA.gov is the U.S. government's official web portal to all federal, state and local government web resources and services.